Simultaneous Nadir Overpasses (SNOs) Predictions

Prediction of SNOs between AQUA and METOP-A Satellite Orbit:

Table of predicted SNOs for the next 14.0 days since TLE Epoch: 8/28/2020
Index Date (AQUA) Time (AQUA) Lat,Lon (AQUA) SZA (AQUA ) Date (METOP-A) Time (METOP-A) Lat,Lon (METOP-A) SZA (METOP-A ) Distance(km) Time Diff (sec)
1 08/31/2020 00:29:34 -76.55, -20.31 111.70 08/31/2020 00:29:10 -76.53, -20.26 111.72 2.41 24
2 08/31/2020 01:19:02 76.57, 147.24 68.34 08/31/2020 01:19:49 76.57, 147.21 68.33 0.83 47
3 09/02/2020 20:03:49 -76.54, 46.15 110.70 09/02/2020 20:03:34 -76.53, 46.07 110.71 2.74 15
4 09/02/2020 20:53:17 76.57,-146.32 69.35 09/02/2020 20:54:12 76.61,-146.31 69.37 3.76 55
5 09/05/2020 14:48:31 76.24, -54.06 69.97 09/05/2020 14:47:23 76.15, -56.21 70.02 57.93 68
6 09/05/2020 15:38:03 -76.54, 112.60 109.68 09/05/2020 15:37:56 -76.56, 112.55 109.65 3.37 7
7 09/05/2020 16:27:32 76.62, -80.05 70.44 09/05/2020 16:28:35 76.60, -80.01 70.40 3.31 63
8 09/08/2020 10:22:52 76.54, 11.39 71.35 09/08/2020 10:21:39 76.51, 11.37 71.35 3.22 73
9 09/08/2020 11:12:19 -76.59, 178.88 108.58 09/08/2020 11:12:20 -76.56, 178.86 108.61 3.21 1
10 09/08/2020 12:01:47 76.63, -13.64 71.49 09/08/2020 12:02:58 76.63, -13.54 71.47 2.60 71
11 09/11/2020 05:57:07 76.55, 77.79 72.42 09/11/2020 05:56:02 76.54, 77.83 72.43 1.16 65
12 09/11/2020 06:46:34 -76.59,-114.70 107.52 09/11/2020 06:46:43 -76.59,-114.67 107.53 0.97 9
